Time,TemperatureF,DewpointF,PressureIn,WindDirection,WindDirectionDegrees,WindSpeedMPH,WindSpeedGustMPH,Humidity,HourlyPrecipIn,Conditions,Clouds,dailyrainin,SoftwareType,DateUTC
2013-09-29 00:02:00,-999.0,-99.9,-100.00,SSW,210,4.0,9.0,-999,-99.99,,,-99.99,,2013-09-29 04:02:00,
2013-09-29 00:10:00,49.0,48.0,-100.00,SSW,195,2.0,4.0,99,-99.99,,,-99.99,,2013-09-29 04:10:00,
2013-09-29 00:44:00,49.0,48.0,-100.00,SSW,195,2.0,4.0,99,-99.99,,,-99.99,,2013-09-29 04:44:00,
2013-09-29 00:54:00,49.0,48.0,-100.00,SSW,195,2.0,4.0,99,-99.99,,,-99.99,,2013-09-29 04:54:00,
2013-09-29 01:03:00,49.0,48.0,-100.00,SSW,195,2.0,4.0,99,-99.99,,,-99.99,,2013-09-29 05:03:00,
2013-09-29 01:11:00,46.0,46.0,-100.00,South,190,3.0,4.0,99,-99.99,,,-99.99,,2013-09-29 05:11:00,
2013-09-29 01:43:00,46.0,46.0,-100.00,South,190,3.0,4.0,99,-99.99,,,-99.99,,2013-09-29 05:43:00,
2013-09-29 01:53:00,46.0,46.0,-100.00,South,190,3.0,4.0,99,-99.99,,,-99.99,,2013-09-29 05:53:00,
2013-09-29 02:03:00,46.0,46.0,-100.00,South,190,3.0,4.0,99,-99.99,,,-99.99,,2013-09-29 06:03:00,
2013-09-29 02:42:00,45.0,45.0,-100.00,South,170,4.0,6.0,99,-99.99,,,-99.99,,2013-09-29 06:42:00,
2013-09-29 02:52:00,45.0,45.0,-100.00,South,170,4.0,6.0,99,-99.99,,,-99.99,,2013-09-29 06:52:00,
2013-09-29 03:02:00,45.0,45.0,-100.00,South,170,4.0,6.0,99,-99.99,,,-99.99,,2013-09-29 07:02:00,
2013-09-29 03:11:00,44.0,44.0,-100.00,South,185,3.0,6.0,99,-99.99,,,-99.99,,2013-09-29 07:11:00,
2013-09-29 03:43:00,44.0,44.0,-100.00,South,185,3.0,6.0,99,-99.99,,,-99.99,,2013-09-29 07:43:00,
2013-09-29 03:52:00,44.0,44.0,-100.00,South,185,3.0,6.0,99,-99.99,,,-99.99,,2013-09-29 07:52:00,
2013-09-29 04:02:00,44.0,44.0,-100.00,South,185,3.0,6.0,99,-99.99,,,-99.99,,2013-09-29 08:02:00,
2013-09-29 04:42:00,42.0,41.0,-100.00,SSW,195,2.0,5.0,99,-99.99,,,-99.99,,2013-09-29 08:42:00,
2013-09-29 04:52:00,42.0,41.0,-100.00,SSW,195,2.0,5.0,99,-99.99,,,-99.99,,2013-09-29 08:52:00,
2013-09-29 05:02:00,42.0,41.0,-100.00,SSW,195,2.0,5.0,99,-99.99,,,-99.99,,2013-09-29 09:02:00,
2013-09-29 05:43:00,41.0,40.0,-100.00,South,180,2.0,3.0,99,-99.99,,,-99.99,,2013-09-29 09:43:00,
2013-09-29 05:54:00,41.0,40.0,-100.00,South,180,2.0,3.0,99,-99.99,,,-99.99,,2013-09-29 09:54:00,
2013-09-29 06:03:00,41.0,40.0,-100.00,South,180,2.0,3.0,99,-99.99,,,-99.99,,2013-09-29 10:03:00,
2013-09-29 06:43:00,39.0,39.0,-100.00,South,185,2.0,3.0,99,-99.99,,,-99.99,,2013-09-29 10:43:00,
2013-09-29 06:53:00,39.0,39.0,-100.00,South,185,2.0,3.0,99,-99.99,,,-99.99,,2013-09-29 10:53:00,
2013-09-29 07:03:00,39.0,39.0,-100.00,South,185,2.0,3.0,99,-99.99,,,-99.99,,2013-09-29 11:03:00,
2013-09-29 08:42:00,38.0,38.0,-100.00,SSW,195,1.0,3.0,99,-99.99,,,-99.99,,2013-09-29 12:42:00,
2013-09-29 08:52:00,38.0,38.0,-100.00,SSW,195,1.0,3.0,99,-99.99,,,-99.99,,2013-09-29 12:52:00,
2013-09-29 09:02:00,38.0,38.0,-100.00,SSW,195,1.0,3.0,99,-99.99,,,-99.99,,2013-09-29 13:02:00,
2013-09-29 09:42:00,44.0,44.0,-100.00,South,180,6.0,7.0,99,-99.99,,,-99.99,,2013-09-29 13:42:00,
2013-09-29 09:53:00,44.0,44.0,-100.00,South,180,6.0,7.0,99,-99.99,,,-99.99,,2013-09-29 13:53:00,
2013-09-29 10:02:00,44.0,44.0,-100.00,South,180,6.0,7.0,99,-99.99,,,-99.99,,2013-09-29 14:02:00,
2013-09-29 10:43:00,49.0,49.0,-100.00,South,170,1.0,6.0,99,-99.99,,,-99.99,,2013-09-29 14:43:00,
2013-09-29 10:52:00,49.0,49.0,-100.00,South,170,1.0,6.0,99,-99.99,,,-99.99,,2013-09-29 14:52:00,
2013-09-29 11:02:00,49.0,49.0,-100.00,South,170,1.0,6.0,99,-99.99,,,-99.99,,2013-09-29 15:02:00,
2013-09-29 11:45:00,56.0,48.0,-100.00,SW,220,3.0,7.0,76,-99.99,,,-99.99,,2013-09-29 15:45:00,
2013-09-29 11:55:00,56.0,48.0,-100.00,SW,220,3.0,7.0,76,-99.99,,,-99.99,,2013-09-29 15:55:00,
2013-09-29 12:05:00,56.0,48.0,-100.00,SW,220,3.0,7.0,76,-99.99,,,-99.99,,2013-09-29 16:05:00,
2013-09-29 12:44:00,62.0,45.0,-100.00,South,170,2.0,6.0,55,-99.99,,,-99.99,,2013-09-29 16:44:00,
2013-09-29 12:54:00,62.0,45.0,-100.00,South,170,2.0,6.0,55,-99.99,,,-99.99,,2013-09-29 16:54:00,
2013-09-29 13:03:00,62.0,45.0,-100.00,South,170,2.0,6.0,55,-99.99,,,-99.99,,2013-09-29 17:03:00,
2013-09-29 13:43:00,64.0,42.0,-100.00,SSE,165,6.0,13.0,45,-99.99,,,-99.99,,2013-09-29 17:43:00,
2013-09-29 13:52:00,64.0,42.0,-100.00,SSE,165,6.0,13.0,45,-99.99,,,-99.99,,2013-09-29 17:52:00,
2013-09-29 14:02:00,64.0,42.0,-100.00,SSE,165,6.0,13.0,45,-99.99,,,-99.99,,2013-09-29 18:02:00,
2013-09-29 14:52:00,67.0,40.0,-100.00,South,170,6.0,14.0,38,-99.99,,,-99.99,,2013-09-29 18:52:00,
2013-09-29 15:02:00,67.0,40.0,-100.00,South,170,6.0,14.0,38,-99.99,,,-99.99,,2013-09-29 19:02:00,
2013-09-29 15:42:00,68.0,38.0,-100.00,South,180,10.0,19.0,34,-99.99,,,-99.99,,2013-09-29 19:42:00,
2013-09-29 15:52:00,68.0,38.0,-100.00,South,180,10.0,19.0,34,-99.99,,,-99.99,,2013-09-29 19:52:00,
2013-09-29 16:02:00,68.0,38.0,-100.00,South,180,10.0,19.0,34,-99.99,,,-99.99,,2013-09-29 20:02:00,
2013-09-29 16:43:00,70.0,39.0,-100.00,South,175,5.0,11.0,32,-99.99,,,-99.99,,2013-09-29 20:43:00,
2013-09-29 16:52:00,70.0,39.0,-100.00,South,175,5.0,11.0,32,-99.99,,,-99.99,,2013-09-29 20:52:00,
2013-09-29 17:02:00,70.0,39.0,-100.00,South,175,5.0,11.0,32,-99.99,,,-99.99,,2013-09-29 21:02:00,
2013-09-29 17:44:00,70.0,38.0,-100.00,SSE,155,4.0,14.0,31,-99.99,,,-99.99,,2013-09-29 21:44:00,
2013-09-29 17:55:00,70.0,38.0,-100.00,SSE,155,4.0,14.0,31,-99.99,,,-99.99,,2013-09-29 21:55:00,
2013-09-29 18:04:00,70.0,38.0,-100.00,SSE,155,4.0,14.0,31,-99.99,,,-99.99,,2013-09-29 22:04:00,
2013-09-29 18:43:00,68.0,38.0,-100.00,South,180,7.0,14.0,33,-99.99,,,-99.99,,2013-09-29 22:43:00,
2013-09-29 19:43:00,64.0,40.0,-100.00,SSE,150,2.0,7.0,42,-99.99,,,-99.99,,2013-09-29 23:43:00,
2013-09-29 19:53:00,64.0,40.0,-100.00,SSE,150,2.0,7.0,42,-99.99,,,-99.99,,2013-09-29 23:53:00,
2013-09-29 20:02:00,64.0,40.0,-100.00,SSE,150,2.0,7.0,42,-99.99,,,-99.99,,2013-09-30 00:02:00,
2013-09-29 20:42:00,60.0,45.0,-100.00,SE,140,3.0,7.0,59,-99.99,,,-99.99,,2013-09-30 00:42:00,
2013-09-29 20:52:00,60.0,45.0,-100.00,SE,140,3.0,7.0,59,-99.99,,,-99.99,,2013-09-30 00:52:00,
2013-09-29 21:02:00,60.0,45.0,-100.00,SE,140,3.0,7.0,59,-99.99,,,-99.99,,2013-09-30 01:02:00,
2013-09-29 21:10:00,59.0,45.0,-100.00,SSE,165,3.0,14.0,59,-99.99,,,-99.99,,2013-09-30 01:10:00,
2013-09-29 21:42:00,59.0,45.0,-100.00,SSE,165,3.0,14.0,59,-99.99,,,-99.99,,2013-09-30 01:42:00,
2013-09-29 21:52:00,59.0,45.0,-100.00,SSE,165,3.0,14.0,59,-99.99,,,-99.99,,2013-09-30 01:52:00,
2013-09-29 22:02:00,59.0,45.0,-100.00,SSE,165,3.0,14.0,59,-99.99,,,-99.99,,2013-09-30 02:02:00,
2013-09-29 22:42:00,60.0,45.0,-100.00,SSE,155,6.0,12.0,58,-99.99,,,-99.99,,2013-09-30 02:42:00,
2013-09-29 22:52:00,60.0,45.0,-100.00,SSE,155,6.0,12.0,58,-99.99,,,-99.99,,2013-09-30 02:52:00,
2013-09-29 23:02:00,60.0,45.0,-100.00,SSE,155,6.0,12.0,58,-99.99,,,-99.99,,2013-09-30 03:02:00,
2013-09-29 23:10:00,60.0,45.0,-100.00,SSE,165,7.0,17.0,58,-99.99,,,-99.99,,2013-09-30 03:10:00,
2013-09-29 23:45:00,60.0,45.0,-100.00,SSE,165,7.0,17.0,58,-99.99,,,-99.99,,2013-09-30 03:45:00,
2013-09-29 23:55:00,60.0,45.0,-100.00,SSE,165,7.0,17.0,58,-99.99,,,-99.99,,2013-09-30 03:55:00,